Wind_Speed
21 21 20 21 23 26 27 26 26 26 26 25 22 22 22 22 21 21 20 18 17 15 14 12 11 11 11 10 10 11 11 12 13 15 16 17 18 20 21 23 24 24 25 25 25 25 24 24 23 22 23 23 21 20 18 15 14 15 16 17 19 18 17 17 17 18 21 22 21 20 18 18 18 18 18 18 19 20 21 21 21 20 20 19 18
22 21 20 20 22 25 27 27 27 27 27 26 24 23 24 23 22 22 20 18 17 15 13 12 11 11 10 10 10 10 10 11 13 15 16 18 20 22 24 25 25 25 26 26 26 26 25 24 22 21 23 23 21 20 18 16 16 17 18 19 20 21 20 20 19 18 19 21 23 23 22 21 20 20 19 19 20 20 21 23 23 22 22 21 20
23 21 20 20 21 25 28 28 28 29 29 27 25 23 24 24 23 22 20 18 17 15 14 12 11 11 10 10 9 9 10 11 13 15 17 19 21 23 25 26 27 27 26 26 25 26 26 24 22 22 23 22 21 20 19 18 18 18 19 21 22 22 23 23 21 20 19 20 23 24 25 24 22 21 21 21 21 21 21 22 23 23 23 23 22
24 23 22 21 21 24 28 29 30 30 30 28 26 24 24 24 24 22 20 19 18 16 15 14 12 12 11 9 9 9 10 11 13 15 17 19 22 24 26 27 28 28 26 26 25 25 25 25 23 23 24 23 21 21 21 20 19 19 20 21 22 23 25 25 24 22 21 19 21 24 25 25 24 23 24 24 23 23 23 23 23 23 23 24 23
26 25 23 22 23 25 28 30 30 31 30 29 26 25 24 24 23 22 20 18 18 16 16 15 13 12 11 10 10 10 11 13 15 16 18 20 23 25 27 28 29 28 27 26 25 25 25 24 24 24 24 23 22 22 22 21 20 21 22 21 22 24 27 26 25 24 23 20 19 22 25 25 25 25 26 26 25 26 27 26 25 24 24 24 24
28 27 26 25 24 25 28 30 30 30 30 29 27 26 25 24 23 22 20 19 18 17 16 15 14 13 12 12 12 13 14 15 16 18 19 21 22 25 27 28 29 28 27 27 27 26 24 24 25 24 24 24 23 23 23 22 22 22 23 22 23 27 28 27 26 26 25 22 20 21 24 26 26 26 25 27 27 28 29 29 28 27 26 25 24
29 29 28 27 26 26 27 29 29 29 29 28 27 27 26 25 24 22 20 20 19 18 17 16 15 15 14 14 14 15 16 17 18 18 19 20 22 25 27 28 29 28 26 26 26 25 23 23 25 24 23 24 24 24 24 24 23 23 24 24 26 28 29 28 27 27 26 25 23 23 24 26 28 27 27 29 30 31 32 31 29 28 28 26 25
30 31 30 30 28 27 27 27 28 28 28 28 28 28 27 26 24 22 21 22 21 19 19 18 17 17 16 16 16 17 18 18 18 18 19 20 21 23 25 27 29 28 25 23 23 22 22 23 23 22 23 24 25 25 25 25 25 25 25 26 27 29 30 30 29 28 27 26 26 26 26 27 28 30 30 32 34 35 35 34 32 30 30 30 28
30 31 31 31 29 28 27 27 28 29 29 29 29 29 28 27 25 24 24 23 22 21 21 20 20 19 18 18 18 19 19 18 17 18 19 19 19 21 23 26 28 27 23 21 22 23 24 25 24 23 24 25 25 26 26 26 26 25 26 28 29 30 32 32 31 29 27 27 27 27 28 28 28 30 32 34 35 35 34 35 35 34 35 34 31
29 31 32 30 30 29 29 28 29 30 30 30 30 30 29 28 27 27 26 25 24 24 24 23 22 21 20 20 20 20 19 18 18 18 17 16 18 21 24 26 27 26 22 21 22 24 25 25 23 23 25 26 26 25 26 26 25 25 27 30 31 32 33 32 32 29 27 27 26 27 29 28 28 31 33 34 34 34 34 36 37 37 36 36 34
29 32 32 32 31 31 31 30 31 31 31 31 31 31 30 29 29 29 28 27 26 26 26 25 23 22 21 21 21 20 19 18 17 15 14 17 21 23 26 27 28 27 24 21 22 23 24 24 23 24 24 24 24 24 24 25 24 24 28 31 32 33 33 33 31 29 27 26 25 26 27 28 28 31 33 34 35 35 35 35 36 36 35 36 36
30 32 33 34 34 33 33 33 33 33 33 33 32 33 32 32 31 31 31 30 29 28 27 26 24 23 23 22 21 20 18 16 13 12 15 21 24 26 27 27 28 29 25 21 22 23 23 23 23 23 21 20 21 22 22 23 23 24 28 31 32 32 32 32 30 27 25 25 25 25 26 27 29 31 33 36 35 33 33 34 35 36 36 37 38
32 33 34 35 35 34 34 35 35 34 34 34 34 34 34 34 34 34 33 31 30 30 29 28 27 25 24 23 21 19 16 15 15 14 18 22 24 26 27 27 29 30 26 22 23 22 21 21 21 19 18 18 20 22 22 22 23 25 29 31 31 31 32 31 28 25 25 25 25 25 25 27 30 32 34 36 35 34 35 36 36 37 38 38 38
33 34 35 36 35 35 35 36 36 36 35 35 35 36 36 36 36 35 34 33 33 32 31 29 28 26 24 23 20 18 18 19 17 16 19 21 24 27 29 29 30 29 26 23 22 20 18 19 19 18 17 18 20 23 23 23 24 26 28 29 30 31 31 29 26 25 25 26 26 25 25 28 32 33 33 35 36 36 37 37 37 38 39 39 39
35 35 37 37 36 35 36 38 38 38 37 36 36 36 36 36 37 36 36 35 34 32 30 29 27 25 24 22 21 21 21 21 18 17 20 21 25 29 32 33 31 28 26 22 19 18 18 18 20 20 19 19 21 23 24 23 23 24 25 27 29 29 29 27 25 25 25 25 25 25 26 30 33 33 33 35 36 38 38 39 38 39 40 40 39
36 37 37 38 37 35 36 38 39 39 39 38 36 36 35 35 36 36 36 34 33 31 29 28 27 25 24 23 23 23 23 21 18 19 20 22 27 30 31 31 29 27 25 20 18 19 19 19 21 22 21 21 22 23 23 22 22 22 24 25 26 26 25 25 24 24 23 23 24 26 29 31 33 33 34 35 36 37 39 39 39 40 41 41 38
36 37 39 39 37 36 36 38 40 40 40 39 38 37 36 35 35 35 35 33 31 29 28 27 26 25 26 25 24 24 23 21 19 20 22 25 29 30 29 29 28 27 24 20 19 19 20 22 22 21 22 23 23 23 23 23 22 22 22 22 21 20 20 20 21 22 23 24 26 28 30 31 32 33 34 35 36 38 39 40 40 40 40 39 36
36 37 39 39 37 36 36 37 39 41 40 40 40 39 38 38 37 35 34 31 30 29 29 28 27 28 28 26 25 25 23 19 19 21 24 26 29 30 30 30 29 27 24 20 17 18 22 22 20 22 24 24 23 24 25 23 20 18 17 17 16 15 15 18 20 22 24 25 26 28 29 30 32 34 35 36 37 38 40 41 40 38 38 37 36
35 35 38 40 39 37 36 37 39 40 41 40 40 40 40 40 38 36 34 32 32 32 30 30 29 29 28 26 26 24 21 18 19 20 23 25 28 31 32 32 30 27 24 19 18 20 23 21 19 23 26 25 24 25 22 18 15 14 14 15 14 15 16 19 21 21 23 24 25 27 29 31 33 35 36 37 39 40 41 40 37 36 35 35 35
31 30 33 38 41 39 36 36 38 40 41 42 42 40 39 37 36 34 33 34 34 33 32 30 29 28 27 27 26 23 19 18 18 19 22 26 30 33 32 29 27 25 23 20 19 21 22 21 22 25 26 26 25 22 17 14 13 13 15 16 16 16 17 18 19 20 22 24 26 28 30 33 35 36 38 39 40 40 39 37 35 34 35 35 34
32 30 31 34 41 43 39 36 37 39 41 43 42 39 37 34 33 32 34 34 34 33 31 29 28 27 27 27 25 21 18 18 18 21 26 30 33 32 28 25 24 24 22 19 18 20 22 22 23 24 24 23 21 17 14 13 14 15 16 16 16 16 16 17 19 21 23 25 27 30 32 34 35 37 38 38 38 37 35 34 34 34 34 33 31
38 37 36 36 38 42 43 39 38 40 42 44 43 39 36 34 33 34 35 35 33 32 30 28 27 28 28 27 23 19 18 18 20 25 30 33 33 28 24 23 23 23 21 18 17 19 20 20 20 21 20 19 17 14 14 14 14 15 15 15 15 16 17 18 20 22 25 27 30 32 33 34 35 35 35 35 34 32 32 31 31 31 30 29 29
40 40 41 40 39 41 44 43 41 42 44 45 43 40 36 36 36 36 36 35 33 32 29 27 28 29 28 25 21 20 19 21 24 29 32 33 30 24 22 23 22 21 19 16 15 17 17 17 18 18 17 16 14 13 13 13 14 14 15 15 16 17 18 20 22 24 27 29 31 32 32 32 33 32 32 31 29 28 27 27 27 27 27 26 27
41 41 43 43 41 41 45 47 45 44 45 45 44 40 38 38 37 37 37 36 35 32 28 28 30 30 27 24 22 21 22 24 28 32 33 31 26 21 21 21 20 18 16 15 14 15 15 15 16 16 15 14 13 12 12 12 13 14 15 16 16 17 19 21 23 25 27 28 28 29 30 30 29 28 27 26 26 25 25 25 25 26 26 26 26
45 45 44 46 45 43 44 48 49 47 46 46 44 41 39 38 38 39 41 40 36 31 29 30 31 29 26 24 23 23 25 28 31 33 31 27 22 20 19 19 17 16 14 12 13 13 14 15 15 14 14 13 12 11 11 13 14 14 15 16 17 18 20 22 24 24 24 25 26 27 27 26 24 23 23 23 23 24 24 24 24 26 27 26 25
50 48 47 47 47 45 45 48 51 50 49 48 48 45 42 42 43 44 43 39 33 29 30 31 30 27 26 25 24 26 28 30 31 30 27 23 21 19 18 16 14 13 11 11 11 13 14 14 14 13 12 12 11 11 12 13 14 14 14 16 18 20 21 21 22 22 22 22 24 24 23 22 20 20 21 21 22 23 24 24 24 25 26 26 24
52 52 51 50 49 48 48 50 54 55 54 52 52 49 47 45 43 42 40 35 30 30 31 30 28 26 25 25 26 29 30 29 27 25 23 21 19 18 16 14 12 11 9 10 12 14 14 14 12 12 12 11 11 12 13 15 15 14 15 17 19 20 20 19 19 20 20 21 21 22 22 21 21 20 21 21 21 21 22 23 23 23 23 24 23
52 54 56 57 57 55 52 52 56 59 56 54 51 48 44 41 40 40 38 32 28 30 30 28 27 26 26 27 28 29 28 25 23 21 19 19 17 15 13 11 10 9 9 11 14 15 14 13 13 12 12 12 13 14 15 15 15 15 16 18 20 19 18 17 18 19 19 19 20 21 21 21 21 21 20 20 20 20 21 23 23 23 22 22 22
51 53 57 60 61 59 54 53 58 60 57 53 49 44 40 40 39 37 32 28 29 30 29 27 26 26 27 27 27 26 24 21 20 19 17 16 14 12 10 9 8 8 10 12 14 15 14 13 13 13 14 14 15 15 15 15 14 15 17 19 20 18 17 17 18 18 18 18 19 21 21 21 21 22 22 22 22 22 23 23 23 23 23 23 23
48 54 60 64 63 61 57 55 57 57 52 49 46 42 39 38 35 31 31 31 32 31 28 26 26 27 26 26 25 24 22 20 18 16 14 12 11 10 9 9 9 9 11 13 14 14 13 13 14 14 15 15 15 15 15 15 15 17 19 20 19 18 17 18 18 18 18 18 19 21 22 22 22 23 25 26 25 24 24 24 24 24 24 24 24
47 51 58 64 67 66 61 56 53 52 47 43 42 41 38 35 33 34 33 32 31 29 27 26 26 26 25 25 24 23 20 17 15 13 11 10 10 10 10 10 9 10 11 12 13 13 13 14 15 15 16 16 16 15 15 15 16 18 20 20 19 18 18 18 18 18 19 19 19 20 21 22 23 25 26 26 26 25 24 24 24 24 24 25 25
49 52 56 62 66 64 58 51 46 45 43 40 37 35 33 33 34 33 32 31 29 27 26 26 25 25 25 24 22 19 16 14 12 11 10 10 10 11 11 10 10 11 12 13 13 13 14 15 16 16 17 17 16 15 15 16 17 19 21 20 20 19 19 19 18 18 19 19 20 21 22 23 25 26 26 26 25 24 24 23 23 24 24 24 25
49 53 55 58 58 53 46 41 38 37 37 35 32 31 31 31 31 31 30 30 28 26 25 26 26 25 24 22 19 16 13 12 11 11 10 11 11 11 11 11 11 12 12 12 13 14 15 16 17 17 18 17 16 15 15 16 18 19 20 19 19 19 20 20 20 19 20 21 22 23 24 25 26 26 25 25 24 23 23 22 22 23 23 24 24
38 41 42 43 40 36 32 30 30 32 33 33 32 32 32 31 30 30 28 27 26 25 25 25 24 23 21 19 17 14 13 12 11 11 11 11 11 11 11 10 10 11 11 12 14 15 16 16 17 18 17 16 15 15 16 17 18 18 18 18 18 19 20 21 21 21 21 22 22 23 24 24 24 25 24 23 23 23 22 21 21 22 23 23 23
14 17 21 25 25 26 29 29 29 31 31 31 31 31 31 30 29 27 26 25 24 23 22 21 21 20 18 17 15 14 13 13 12 11 10 10 10 10 10 9 10 11 12 13 14 15 16 16 17 17 16 15 16 16 17 17 18 18 18 18 18 20 21 21 21 21 21 21 22 22 22 23 23 23 22 22 21 21 20 20 21 21 22 23 22
11 13 21 25 26 28 29 28 27 29 30 30 31 30 29 27 26 25 25 25 24 22 20 19 19 18 16 15 15 14 13 12 11 10 10 9 9 9 9 10 11 12 12 13 14 15 16 16 16 16 16 15 16 16 16 17 17 17 18 18 19 20 21 21 21 20 20 20 21 21 21 22 22 22 22 21 20 19 19 19 20 20 21 22 21
22 22 24 25 25 27 28 28 29 30 30 30 29 27 26 25 24 25 25 24 22 21 20 19 18 16 15 15 14 14 13 12 11 10 10 9 9 10 11 11 11 11 12 13 15 16 16 17 17 16 15 15 15 16 16 16 16 16 16 17 18 20 20 19 19 19 19 19 19 20 20 21 22 21 21 20 19 19 19 19 19 20 20 21 21
19 19 21 22 24 26 27 28 28 28 27 27 25 24 24 23 23 23 22 21 20 20 19 18 17 16 15 15 15 14 13 12 11 10 9 10 10 11 11 11 11 12 14 15 17 17 17 17 17 16 15 15 15 15 16 15 15 15 15 17 18 19 19 18 17 17 18 18 18 19 20 21 21 21 20 19 18 18 18 18 19 19 19 20 20
14 15 17 18 21 23 23 24 24 24 24 23 22 22 22 22 22 21 20 19 20 19 18 17 17 16 16 16 15 14 12 11 10 10 10 11 12 12 11 11 13 15 17 17 18 18 18 18 17 16 15 15 15 16 16 15 14 15 16 17 18 18 17 17 16 16 17 17 17 18 20 21 22 21 20 18 17 17 17 17 18 19 19 19 19
14 15 16 18 19 20 20 20 20 20 20 19 20 20 21 21 21 20 19 19 20 19 18 17 17 17 16 15 14 12 11 11 11 11 11 12 12 12 12 13 15 17 18 18 18 18 18 18 18 16 15 15 16 16 16 16 15 16 17 18 18 17 16 15 16 16 16 17 17 18 20 21 21 20 18 17 16 16 16 16 17 18 19 19 19
16 17 18 19 18 18 18 18 18 17 17 17 18 18 19 20 20 20 19 19 18 17 17 17 17 16 16 15 13 12 12 12 12 12 13 13 13 13 14 15 17 18 18 18 18 18 18 18 17 15 14 15 16 17 16 16 16 17 17 17 17 16 15 15 16 16 17 18 18 19 20 21 20 19 17 16 15 15 15 16 17 18 18 19 18
17 18 18 17 16 15 14 14 15 16 16 16 16 17 19 20 20 19 19 18 16 16 17 17 17 16 15 14 13 13 13 13 14 14 14 14 14 14 15 16 17 19 19 19 19 18 17 17 16 15 14 14 15 15 16 16 16 17 17 17 16 16 16 16 16 16 18 19 19 19 20 20 19 18 17 15 14 14 15 15 16 17 18 18 17
14 14 14 15 15 14 14 15 15 15 15 16 16 17 19 19 18 17 17 17 16 16 16 16 15 15 15 15 14 15 14 14 14 15 15 15 15 16 16 18 19 20 20 19 19 18 17 16 16 15 14 14 15 15 16 17 17 17 17 17 17 16 16 16 16 17 18 20 20 20 19 19 18 17 16 14 14 14 14 14 16 17 18 17 16
14 14 16 17 16 15 16 17 17 16 16 16 17 17 17 16 14 15 16 17 16 16 16 16 15 16 16 16 16 16 15 15 16 17 17 17 17 18 19 20 21 21 21 20 19 18 17 16 16 16 16 16 16 17 17 18 18 18 18 18 18 17 17 17 18 18 19 20 20 19 18 18 18 17 15 14 13 13 13 14 15 16 17 17 16
17 18 20 19 17 16 15 14 12 13 15 16 15 15 16 16 16 17 17 17 16 17 17 17 16 16 16 16 17 17 17 17 18 19 20 20 19 20 21 22 22 22 21 20 19 18 16 15 15 15 16 17 18 18 19 19 19 20 20 20 19 19 19 19 19 19 20 20 20 18 18 18 18 16 15 14 13 12 13 13 15 16 16 16 15
20 21 22 20 18 18 18 16 14 16 19 19 16 15 16 16 18 19 19 19 18 18 18 17 16 16 15 16 17 18 19 20 21 22 22 21 21 21 23 24 23 22 21 19 18 17 15 14 14 15 16 17 17 18 19 20 21 21 21 21 20 20 20 20 19 18 18 19 18 18 18 18 17 16 15 13 13 12 12 13 14 15 15 15 15
18 20 21 19 17 18 19 18 18 20 20 18 16 16 17 18 19 20 20 20 18 17 16 16 16 15 15 16 18 19 21 22 23 24 23 22 22 24 25 25 23 22 21 19 17 16 14 14 14 15 16 16 17 18 20 22 22 23 22 20 19 19 19 19 18 17 17 18 18 18 18 18 17 16 15 13 13 12 12 13 14 15 15 15 15
16 16 16 14 12 13 15 16 18 18 17 16 16 16 17 19 22 23 22 20 17 15 16 17 17 17 17 18 20 21 21 22 23 23 23 23 23 23 22 21 21 21 20 18 16 15 15 15 15 16 17 18 19 21 23 23 22 22 20 19 17 17 18 18 17 17 17 17 18 18 18 18 17 16 15 14 13 12 12 12 14 14 14 15 15
10 11 12 11 12 14 15 17 18 16 16 17 17 15 15 18 20 19 18 17 16 16 18 18 18 18 19 19 19 20 20 21 22 22 22 20 18 16 14 13 13 14 15 15 15 15 15 16 17 17 17 18 20 21 21 20 20 19 18 17 17 17 17 17 17 17 17 18 17 17 17 17 17 16 16 14 13 12 12 12 13 13 14 15 15
7 8 10 13 16 17 16 17 19 17 18 20 19 15 14 16 17 15 14 15 16 17 18 18 18 17 17 17 17 18 19 19 19 18 15 12 10 9 8 8 8 9 10 11 12 13 15 16 17 16 16 17 18 18 17 17 17 17 17 17 18 18 18 18 18 17 17 16 16 16 17 17 17 16 16 15 14 13 12 12 12 13 14 15 15
13 14 14 14 15 15 14 15 19 20 20 22 20 16 14 15 16 16 16 18 18 19 19 18 16 16 15 15 16 16 16 16 15 14 12 10 9 8 8 9 10 10 10 11 11 12 13 15 16 16 16 16 16 16 16 17 17 16 16 17 17 17 17 17 17 16 15 15 15 16 16 16 16 16 16 15 15 14 13 12 13 13 13 14 15
Wind_Direction
219 227 229 227 223 216 212 210 208 206 207 210 210 201 195 196 196 196 197 196 195 197 198 201 205 213 221 229 238 248 258 268 276 283 292 297 302 304 305 306 309 310 311 314 317 319 321 322 321 319 319 319 320 323 324 316 300 293 295 304 310 308 302 299 298 295 292 287 281 274 268 264 266 271 276 282 289 294 296 296 293 292 292 292 292
215 223 228 229 223 216 213 210 208 207 207 208 207 200 195 196 198 199 199 198 200 202 203 206 212 218 227 236 245 257 268 276 282 287 294 298 301 304 305 306 307 309 312 315 317 318 317 318 317 315 313 313 313 315 315 307 297 292 292 298 304 306 307 305 298 293 290 285 281 276 271 270 271 274 279 284 288 292 293 294 294 294 294 294 293
212 217 225 229 225 217 213 211 209 207 207 208 205 200 197 199 201 202 201 202 205 207 208 212 216 221 230 239 249 261 272 280 286 291 296 299 301 303 305 306 307 308 311 315 316 314 313 313 312 311 308 307 307 308 307 302 296 289 286 291 297 303 309 310 302 293 289 285 281 277 274 274 277 279 283 287 289 290 291 292 292 293 294 295 294
213 215 219 225 226 221 215 212 210 208 208 208 204 200 198 201 204 204 204 205 208 210 214 218 222 226 231 238 247 258 269 278 286 293 297 300 300 302 303 304 305 306 309 312 310 306 306 306 305 304 302 301 301 301 300 298 292 283 279 285 294 300 306 310 305 295 289 285 280 277 275 275 277 279 282 286 290 292 292 293 292 292 294 295 294
215 215 217 221 223 222 218 214 213 211 210 209 205 201 200 201 204 205 205 206 208 211 215 219 224 227 229 238 248 258 268 278 286 292 296 297 298 301 302 303 304 305 307 306 300 297 298 298 296 294 294 295 295 294 293 292 288 280 277 282 291 297 301 307 307 296 289 285 281 280 279 277 276 277 281 285 290 293 294 293 292 292 292 293 292
219 216 216 219 221 222 221 218 216 214 212 210 208 205 204 204 205 206 206 206 209 212 215 219 222 225 231 241 251 262 270 277 283 288 292 294 297 299 300 302 302 302 303 300 296 297 295 290 288 288 287 288 289 288 289 289 286 281 278 280 287 293 299 304 305 296 288 286 286 284 281 277 277 278 281 286 292 295 295 293 291 291 290 290 291
222 220 219 220 219 219 221 221 220 218 214 212 210 209 208 208 207 207 207 210 212 214 216 218 221 227 236 246 255 264 270 274 279 285 289 292 293 295 297 298 297 296 297 298 299 300 294 287 285 284 281 281 282 283 285 286 282 278 277 278 283 290 296 300 300 294 287 286 286 281 276 276 279 281 282 286 292 296 296 293 292 291 291 292 293
224 224 223 223 221 219 219 221 221 219 216 214 212 212 211 209 209 209 210 212 214 215 216 218 224 232 241 249 256 262 266 271 278 284 288 288 290 294 296 295 294 293 293 296 299 299 294 289 286 282 278 277 277 279 282 283 281 278 275 274 278 286 292 296 297 292 283 280 281 279 278 280 282 282 283 286 291 295 295 293 292 293 293 294 293
225 225 226 227 226 220 217 219 220 219 216 214 213 213 211 210 209 210 212 214 215 217 218 220 226 234 242 249 255 260 265 272 280 283 285 287 292 298 298 295 295 295 292 290 293 294 292 289 289 288 282 277 276 276 278 280 281 278 272 269 275 284 289 292 294 289 279 274 277 280 282 284 285 286 287 289 293 295 294 292 291 292 292 292 291
224 226 229 231 229 223 217 216 217 217 216 214 213 213 212 211 211 211 213 215 217 219 221 224 230 235 242 248 253 258 265 273 280 281 283 289 294 296 295 295 297 298 293 287 287 287 285 286 291 291 283 277 278 278 278 279 280 275 270 269 274 281 286 289 292 288 277 272 275 279 283 286 289 291 292 293 293 293 292 292 292 293 291 289 288
222 226 230 230 228 223 219 216 216 216 216 215 214 214 214 213 213 213 215 216 218 221 225 229 233 237 243 248 253 258 266 274 277 276 282 292 295 295 298 301 302 300 295 286 283 282 283 287 291 288 282 278 278 277 275 276 276 270 267 269 273 278 283 288 289 283 275 273 276 280 285 289 292 293 294 294 292 290 290 292 293 292 290 288 289
221 225 229 229 226 223 221 219 216 215 215 215 214 214 215 215 215 216 217 218 219 222 226 230 234 239 244 248 252 259 266 267 261 263 283 297 301 301 304 306 302 299 295 287 283 284 287 291 293 289 285 280 275 272 271 271 269 264 263 267 271 275 281 285 283 276 273 275 278 281 285 288 290 293 295 294 292 289 289 290 291 291 292 293 295
220 222 226 229 227 223 222 221 218 216 215 215 215 215 216 216 217 218 219 220 222 224 226 230 234 239 244 248 253 259 258 246 240 261 289 302 305 303 303 302 298 297 295 288 286 289 288 291 293 288 283 278 271 268 266 262 259 257 260 264 269 274 279 280 277 273 272 274 276 278 281 285 289 293 294 293 291 290 289 290 292 294 295 296 297
219 220 222 227 227 224 222 222 220 217 216 216 216 217 217 216 218 220 222 223 224 225 227 231 234 239 243 249 254 253 243 233 240 273 298 304 306 306 305 303 301 300 297 290 288 289 287 288 288 282 280 281 277 270 263 255 253 256 261 266 271 275 277 276 273 273 274 274 276 279 281 286 290 293 292 291 291 291 292 293 294 296 296 297 298
221 220 220 224 226 223 221 222 221 219 217 216 217 218 218 217 218 220 222 224 226 227 230 232 236 239 243 249 250 244 236 234 250 284 301 302 307 310 307 306 305 303 298 292 286 283 283 284 281 277 280 287 284 275 265 257 256 260 265 270 273 276 276 274 273 273 272 274 278 281 285 288 291 291 291 290 291 293 294 295 297 298 298 298 300
226 221 220 223 225 224 221 221 221 220 217 217 218 219 219 218 218 219 222 224 227 228 231 233 237 240 245 247 245 239 235 238 259 287 298 300 306 308 303 302 304 301 297 289 278 275 278 279 276 276 285 294 289 277 267 261 262 266 269 271 274 275 275 274 272 272 273 275 279 282 286 290 291 291 291 291 292 294 295 297 299 299 299 300 301
232 225 222 221 223 224 221 220 220 219 217 217 218 220 221 221 220 221 223 225 228 230 233 236 239 243 245 246 244 239 235 243 267 290 298 301 307 307 302 300 301 300 296 287 278 276 277 276 272 272 282 289 284 274 267 264 264 268 270 270 269 271 272 272 272 275 278 281 283 286 289 291 292 292 292 293 294 295 296 297 299 300 300 300 300
238 232 225 222 223 224 222 220 220 219 217 217 218 220 222 223 223 224 226 229 232 234 236 237 240 243 246 247 245 238 238 253 278 295 303 307 310 310 307 303 300 301 298 288 275 272 273 272 266 266 276 281 275 269 267 266 268 268 264 261 263 268 271 270 271 275 280 284 287 289 291 291 292 292 293 293 294 295 296 298 300 300 300 299 299
242 239 232 225 223 224 222 219 219 219 218 218 219 220 222 224 225 227 228 230 232 233 235 236 240 245 248 248 243 238 245 268 288 300 307 310 311 311 309 303 300 300 298 284 268 262 265 264 259 266 277 282 276 271 268 267 265 258 254 256 262 266 267 268 272 278 283 287 290 291 292 292 292 292 293 293 295 296 297 299 300 299 297 297 298
247 248 244 233 226 225 225 220 218 218 219 219 219 220 221 223 225 225 226 227 229 231 234 238 242 247 249 244 237 239 256 277 291 302 307 308 308 309 306 300 296 296 292 283 268 259 259 259 259 267 277 279 274 268 261 256 252 250 256 264 266 266 268 273 279 284 286 288 290 291 292 292 292 292 293 294 295 296 296 296 295 294 295 296 298
252 257 260 251 235 228 227 224 219 218 219 219 219 219 220 222 221 221 222 225 229 232 235 240 245 247 243 235 234 244 263 278 290 300 304 307 307 306 301 295 291 290 287 281 268 258 258 260 261 267 272 269 262 254 248 248 252 258 264 268 269 273 279 283 286 287 288 290 292 293 293 293 293 293 294 294 294 293 292 291 291 291 293 296 297
257 263 268 266 251 236 229 227 223 220 220 220 219 218 220 221 219 219 223 227 231 235 238 243 245 240 231 229 236 250 265 279 290 296 301 303 302 298 294 291 288 285 284 279 266 259 261 262 262 262 260 253 246 243 246 252 258 262 267 271 277 284 287 289 291 293 294 295 296 295 295 295 294 294 294 294 294 293 291 290 289 290 292 294 295
262 266 267 267 262 247 233 229 227 224 222 223 223 222 221 220 219 221 227 233 236 238 241 243 238 228 223 228 241 253 265 278 288 294 297 297 293 290 289 288 286 283 282 277 267 262 262 259 256 252 246 241 241 244 249 254 258 263 269 277 284 289 293 297 299 299 298 297 297 296 296 295 295 296 296 296 295 294 292 291 291 291 292 293 295
263 266 263 262 262 253 239 232 230 228 226 227 228 227 224 223 225 228 233 237 237 238 242 239 228 220 223 234 246 256 267 279 286 291 292 289 285 284 285 285 283 279 277 271 265 261 256 249 243 240 239 241 243 244 247 252 259 266 275 282 289 295 299 302 302 300 299 298 297 296 296 297 298 299 299 297 294 293 293 292 292 293 293 295 297
257 261 260 256 256 254 244 235 231 231 231 231 232 232 229 227 230 233 235 236 235 237 237 229 220 220 229 240 250 261 272 280 285 287 285 282 281 282 282 281 279 275 271 265 258 251 241 235 234 238 243 245 243 244 250 258 266 273 281 288 294 298 300 300 300 300 300 299 299 299 300 301 302 301 298 296 293 292 292 292 293 294 294 295 295
250 252 252 250 249 251 249 240 233 230 232 234 235 235 233 232 234 236 235 235 235 232 225 219 218 226 237 246 257 267 274 280 281 280 279 279 280 280 278 277 275 272 267 258 244 232 225 228 235 243 247 247 247 253 263 270 276 283 289 294 297 298 298 299 299 299 300 301 302 303 304 303 300 296 294 293 292 293 294 294 294 293 292 292 292
241 240 242 242 242 244 244 240 234 230 230 232 233 234 235 236 237 238 240 242 235 221 214 216 224 235 245 255 264 269 273 276 275 273 273 276 277 276 274 272 271 270 261 241 225 220 223 233 244 250 251 253 259 269 276 280 285 292 295 297 298 297 297 298 297 298 302 306 307 309 309 305 298 293 291 290 291 294 296 297 299 298 296 295 294
243 240 240 238 235 235 237 237 235 230 228 230 233 236 237 237 237 240 244 242 225 213 215 225 233 242 253 260 265 268 270 270 268 267 268 271 272 272 271 270 269 261 240 223 221 225 232 242 251 256 260 266 274 280 284 287 292 297 298 299 299 297 296 297 297 301 307 311 312 313 313 309 302 297 296 295 297 300 303 305 307 307 306 303 302
255 254 251 245 237 233 235 239 236 230 229 232 234 234 234 238 240 238 230 217 209 213 223 232 239 249 257 261 263 264 264 263 263 263 265 265 265 265 264 263 258 241 226 225 229 234 241 249 257 263 270 277 282 285 288 293 298 299 300 300 299 297 296 297 300 305 310 313 315 316 315 312 310 309 310 311 311 312 312 312 313 313 312 311 311
262 262 260 257 249 239 236 238 234 228 228 232 231 229 231 236 234 220 205 203 210 221 229 237 245 252 255 255 257 258 258 258 260 261 262 260 257 257 256 252 245 236 232 234 237 241 249 258 265 271 277 283 287 290 294 299 300 300 300 300 298 296 296 299 304 308 311 314 316 314 312 313 315 316 316 316 314 313 313 313 314 315 315 315 313
260 259 257 256 250 241 234 232 227 222 220 222 225 228 229 224 212 200 199 209 219 226 233 240 245 249 250 252 254 255 256 258 257 254 254 252 250 254 255 250 245 242 241 241 244 251 259 266 271 277 283 288 292 295 298 300 300 299 299 299 298 297 299 303 308 310 309 309 308 306 308 311 313 313 313 313 312 312 312 314 315 316 316 315 313
257 255 250 243 236 230 226 224 220 217 216 216 219 219 213 204 199 201 208 219 226 231 236 241 244 247 249 249 250 249 250 251 246 242 241 243 245 248 248 246 244 243 244 248 252 258 265 271 276 281 285 289 292 294 296 297 296 296 298 300 301 303 305 307 307 306 305 306 306 308 311 311 310 310 311 311 310 310 312 314 316 315 314 313 312
253 251 243 233 224 221 220 217 211 209 207 202 197 194 192 196 205 212 218 224 228 231 235 240 244 246 245 244 244 242 239 235 232 232 234 237 240 242 242 242 244 246 249 254 258 263 270 275 279 282 285 288 292 294 294 293 291 292 295 299 302 305 306 306 306 307 309 312 313 314 313 311 309 309 310 310 310 310 311 313 314 314 312 312 311
246 245 232 220 214 210 203 193 184 180 179 179 182 188 195 204 212 217 220 224 227 232 237 240 241 240 238 238 237 231 224 222 222 226 232 235 238 240 242 245 250 253 257 261 264 270 275 277 279 281 285 289 292 292 291 291 292 295 298 301 303 305 305 305 308 312 315 314 313 312 311 310 309 309 310 309 309 310 312 315 315 314 313 312 313
237 232 201 182 174 167 160 158 160 165 172 181 191 199 205 210 214 217 221 225 229 233 235 234 233 232 231 229 225 219 218 218 220 224 231 236 239 243 246 251 257 260 263 267 271 275 276 276 278 283 288 293 294 293 295 298 302 304 305 306 307 306 305 306 310 312 313 311 310 310 310 310 310 309 308 308 308 310 314 316 315 314 313 314 315
149 149 148 145 146 149 153 160 169 178 186 194 200 205 208 212 216 220 224 228 229 226 224 224 226 225 221 216 215 216 216 216 218 225 232 237 241 245 250 255 258 262 266 270 274 275 276 277 281 287 294 296 296 297 301 302 302 303 303 304 304 302 301 304 306 308 308 308 308 309 310 310 310 309 308 307 309 313 317 317 315 314 314 315 317
147 149 152 154 157 163 170 177 183 189 195 200 203 208 211 214 219 223 225 226 224 220 218 220 219 215 211 211 213 215 214 215 220 227 234 239 243 248 252 254 258 264 270 274 277 278 278 280 283 289 294 295 295 299 300 299 297 296 295 295 294 293 296 300 302 303 305 305 306 309 310 310 309 308 307 308 311 316 317 316 316 316 315 316 319
147 154 162 167 172 177 184 190 193 197 200 202 206 211 214 215 218 219 217 216 216 216 217 217 212 208 208 212 215 216 216 219 224 229 235 241 245 248 251 254 262 272 276 277 278 279 279 281 285 290 294 294 294 295 295 293 292 291 288 287 287 289 293 298 299 300 302 303 305 308 308 307 307 306 306 310 314 315 315 314 315 315 315 317 321
164 172 180 185 189 192 195 197 199 199 201 202 205 209 210 210 210 211 211 214 215 213 213 212 210 210 212 215 218 218 218 222 229 234 238 243 246 248 253 260 271 278 279 280 280 280 281 284 289 293 294 292 290 289 289 290 291 287 284 282 282 285 290 293 294 297 300 301 304 304 303 304 306 307 308 311 312 312 313 314 314 315 316 319 321
178 184 187 188 190 191 191 191 192 195 198 200 203 206 206 207 209 212 217 220 217 213 213 216 217 216 215 213 213 215 219 226 233 237 240 243 246 251 260 270 278 282 282 282 281 282 285 290 292 292 290 285 283 285 288 290 288 283 278 277 279 283 288 290 293 297 299 300 301 300 300 302 306 306 307 308 309 310 313 313 314 315 317 319 321
168 170 173 175 179 183 186 188 190 193 197 201 206 209 209 208 209 211 215 218 219 218 219 220 217 214 212 211 212 216 223 231 237 239 240 243 248 257 268 277 284 285 283 282 282 284 289 290 287 283 278 276 279 284 287 287 283 277 274 276 280 284 288 292 295 297 296 296 296 295 298 302 304 304 304 305 308 310 312 313 314 315 316 318 319
166 169 173 178 183 188 192 196 198 201 206 213 219 219 214 209 209 210 214 219 221 219 216 215 214 214 215 217 220 224 231 238 243 244 243 246 254 263 272 282 287 286 283 280 279 282 285 282 277 272 268 268 274 280 282 279 274 271 272 275 279 283 285 288 291 292 291 291 292 295 299 302 302 301 302 304 306 308 310 312 313 314 315 317 318
187 191 194 201 207 212 218 225 226 226 226 225 222 218 215 215 217 220 221 219 216 213 212 213 216 220 223 225 229 235 241 247 250 249 247 252 259 266 274 283 288 287 284 280 279 280 280 277 274 273 270 269 272 275 275 274 272 272 275 277 278 281 284 287 289 290 290 291 294 298 301 302 300 299 300 301 303 305 307 309 311 312 314 316 316
212 213 213 218 226 232 235 237 237 234 229 224 219 215 214 217 220 219 216 213 210 210 214 217 221 226 231 234 237 241 246 251 253 253 254 257 262 267 274 281 285 286 283 279 277 277 276 275 276 277 276 275 275 276 276 276 275 276 276 276 277 279 282 285 288 289 290 292 296 300 301 299 297 296 296 297 299 301 303 306 309 312 313 314 314
216 216 217 222 229 232 227 222 223 224 222 221 221 219 215 211 207 206 208 211 212 213 217 221 223 227 232 236 239 243 249 254 258 259 260 262 264 268 274 280 283 283 278 272 270 271 271 272 276 278 277 278 278 277 276 274 272 272 273 275 278 281 282 283 286 288 290 293 297 298 297 296 295 293 292 292 294 296 299 303 307 310 312 312 312
215 216 219 222 224 223 214 205 209 219 218 212 214 220 220 213 207 204 204 205 207 212 220 224 224 226 232 238 244 250 256 260 262 263 263 264 267 273 278 281 281 277 270 265 263 265 267 270 273 275 275 276 276 273 270 268 267 269 271 275 278 282 284 286 288 289 292 294 296 294 293 293 293 291 289 288 290 292 296 301 305 309 311 311 310
213 216 220 217 216 220 217 211 214 218 213 205 208 219 222 215 208 205 205 205 206 214 225 230 229 230 237 244 250 255 259 261 261 262 264 268 274 278 279 277 274 268 263 260 260 262 267 271 271 269 268 268 267 265 264 265 266 269 272 276 280 284 287 289 291 292 292 291 290 290 290 291 290 288 286 285 286 288 292 297 303 308 311 310 310
225 230 233 229 231 238 236 229 224 217 208 208 217 222 223 222 217 210 206 205 208 216 226 230 233 237 244 249 252 254 257 259 262 267 272 277 278 276 272 266 261 257 254 254 256 261 268 272 272 268 264 260 259 260 262 263 265 269 274 280 285 287 288 290 291 291 289 287 286 287 288 289 288 286 284 282 282 285 288 294 301 306 310 310 309
233 234 234 238 248 251 248 247 243 227 213 219 226 221 219 228 230 221 211 209 214 222 230 234 238 245 250 253 254 256 260 265 271 276 279 280 278 273 267 262 257 252 250 252 255 261 266 269 270 269 264 257 254 255 258 261 266 272 279 284 286 286 287 289 290 288 286 285 286 287 288 287 287 285 282 280 279 281 285 290 297 304 308 308 306
253 240 237 241 241 236 236 248 251 238 224 227 229 219 213 224 232 232 230 230 231 234 238 242 246 251 254 258 261 265 270 274 277 278 278 277 274 273 277 281 278 271 267 268 267 267 267 266 267 265 261 256 256 259 264 268 273 279 283 286 286 286 287 287 288 287 287 287 287 287 286 286 285 283 280 278 278 278 281 286 293 300 303 305 305
266 261 260 257 243 224 215 227 239 240 236 233 228 220 217 223 226 227 231 236 238 241 245 249 256 262 268 275 279 280 280 280 279 279 279 279 279 281 286 290 289 287 288 287 281 273 268 266 265 265 264 264 266 269 271 273 277 282 286 288 289 289 287 285 284 283 282 281 282 283 283 283 283 281 279 278 277 277 279 283 288 293 298 302 305
Height
3154 3155 3156 3158 3159 3161 3162 3164 3165 3167 3169 3171 3173 3175 3177 3179 3181 3182 3184 3185 3186 3187 3188 3189 3191 3191 3192 3193 3193 3194 3194 3195 3195 3195 3195 3195 3195 3195 3195 3195 3195 3195 3194 3193 3192 3192 3191 3191 3190 3189 3188 3188 3187 3187 3186 3186 3185 3185 3184 3184 3184 3184 3184 3183 3183 3183 3181 3180 3179 3178 3177 3177 3176 3176 3175 3174 3173 3172 3171 3170 3170 3169 3168 3168 3167
3152 3153 3154 3155 3157 3159 3160 3162 3163 3165 3167 3168 3170 3172 3174 3176 3178 3180 3181 3183 3184 3185 3186 3187 3188 3189 3190 3191 3191 3192 3192 3192 3192 3193 3193 3193 3193 3192 3192 3192 3192 3192 3191 3190 3190 3189 3188 3188 3188 3187 3186 3185 3185 3185 3184 3183 3182 3182 3182 3181 3181 3180 3180 3180 3180 3180 3179 3178 3177 3176 3175 3174 3174 3173 3173 3173 3172 3171 3169 3168 3167 3166 3165 3165 3164
3149 3151 3152 3153 3155 3157 3158 3159 3160 3162 3164 3166 3168 3170 3172 3174 3176 3177 3179 3180 3182 3183 3184 3185 3186 3187 3188 3188 3189 3189 3190 3190 3190 3190 3190 3190 3190 3190 3189 3189 3188 3188 3188 3188 3187 3186 3185 3185 3185 3184 3184 3183 3183 3182 3181 3181 3180 3180 3179 3179 3179 3178 3177 3177 3177 3176 3176 3175 3175 3174 3172 3172 3172 3171 3170 3170 3170 3169 3168 3166 3165 3163 3162 3161 3161
3147 3148 3149 3150 3152 3154 3155 3157 3158 3159 3161 3163 3165 3168 3169 3171 3173 3174 3176 3178 3179 3181 3181 3182 3183 3184 3185 3186 3186 3187 3187 3187 3187 3187 3188 3187 3187 3187 3186 3185 3185 3185 3185 3185 3184 3183 3182 3182 3182 3181 3180 3180 3180 3180 3179 3178 3178 3178 3177 3176 3176 3175 3174 3174 3173 3173 3173 3173 3172 3172 3171 3170 3170 3169 3167 3167 3166 3166 3165 3164 3162 3161 3160 3159 3158
3144 3145 3146 3148 3150 3151 3153 3154 3155 3156 3158 3160 3163 3165 3166 3168 3170 3171 3173 3175 3176 3178 3179 3180 3181 3181 3182 3183 3183 3184 3184 3185 3184 3184 3184 3184 3184 3184 3183 3183 3182 3181 3181 3181 3180 3179 3179 3178 3178 3177 3176 3176 3177 3176 3176 3175 3175 3175 3174 3173 3173 3172 3171 3171 3170 3170 3169 3170 3170 3169 3169 3168 3167 3166 3164 3163 3163 3162 3161 3160 3159 3158 3157 3156 3155
3141 3142 3143 3145 3146 3148 3150 3152 3153 3154 3156 3158 3160 3162 3163 3165 3167 3168 3170 3172 3173 3175 3176 3177 3178 3178 3179 3180 3180 3181 3181 3182 3182 3182 3181 3181 3181 3181 3181 3180 3179 3178 3178 3177 3176 3176 3175 3175 3174 3173 3173 3172 3173 3172 3172 3172 3172 3171 3171 3171 3170 3169 3168 3168 3167 3166 3166 3166 3166 3166 3166 3165 3164 3164 3162 3160 3159 3159 3158 3157 3156 3155 3153 3153 3152
3137 3139 3140 3141 3143 3145 3147 3149 3151 3152 3153 3155 3157 3159 3160 3162 3163 3165 3167 3168 3170 3171 3173 3174 3175 3175 3176 3176 3177 3178 3178 3178 3179 3179 3179 3179 3178 3178 3178 3177 3176 3175 3174 3173 3172 3172 3171 3171 3171 3170 3169 3169 3169 3169 3169 3169 3169 3169 3169 3168 3167 3167 3166 3165 3163 3162 3162 3162 3162 3162 3162 3162 3161 3161 3160 3158 3156 3155 3154 3153 3153 3152 3149 3148 3148
3134 3135 3137 3138 3139 3142 3144 3146 3148 3149 3151 3152 3154 3155 3156 3158 3160 3162 3163 3165 3166 3168 3169 3170 3171 3172 3172 3173 3174 3174 3175 3175 3176 3176 3176 3176 3176 3175 3175 3174 3172 3171 3170 3170 3169 3168 3167 3167 3167 3167 3166 3166 3166 3166 3166 3166 3166 3167 3166 3166 3165 3164 3163 3162 3161 3159 3159 3158 3159 3159 3158 3158 3158 3158 3157 3155 3153 3152 3151 3149 3149 3148 3146 3144 3143
3130 3131 3133 3134 3136 3138 3141 3143 3144 3146 3147 3149 3150 3151 3153 3154 3156 3158 3159 3161 3162 3164 3165 3166 3167 3168 3169 3170 3170 3171 3171 3172 3172 3173 3173 3173 3173 3172 3171 3170 3168 3167 3167 3166 3166 3165 3164 3163 3163 3163 3163 3162 3163 3163 3163 3163 3163 3163 3163 3162 3161 3160 3160 3159 3157 3156 3155 3155 3155 3155 3155 3155 3155 3154 3153 3151 3150 3148 3147 3144 3143 3143 3141 3139 3138
3126 3127 3129 3130 3132 3135 3137 3139 3140 3142 3143 3144 3146 3147 3149 3151 3152 3153 3155 3157 3159 3160 3161 3162 3163 3165 3166 3167 3167 3167 3168 3169 3169 3169 3170 3170 3170 3168 3167 3166 3164 3163 3163 3162 3162 3162 3161 3160 3160 3159 3159 3158 3159 3159 3159 3159 3159 3159 3159 3159 3158 3157 3156 3155 3154 3153 3152 3151 3151 3151 3151 3151 3152 3150 3148 3147 3146 3144 3142 3140 3138 3137 3136 3134 3133
3122 3123 3125 3127 3129 3131 3133 3134 3136 3137 3139 3140 3142 3143 3145 3147 3148 3149 3151 3153 3155 3156 3157 3158 3160 3161 3162 3163 3164 3164 3165 3166 3166 3167 3167 3166 3165 3164 3163 3161 3160 3159 3159 3158 3158 3158 3158 3157 3156 3156 3155 3155 3155 3155 3155 3155 3155 3155 3155 3155 3154 3153 3152 3151 3150 3149 3148 3148 3148 3148 3147 3147 3148 3146 3144 3143 3141 3140 3138 3136 3134 3133 3131 3129 3127
3118 3120 3121 3123 3125 3127 3129 3130 3131 3133 3135 3136 3138 3140 3141 3143 3144 3145 3147 3149 3151 3152 3153 3155 3156 3158 3159 3160 3161 3162 3163 3163 3163 3163 3163 3162 3161 3159 3158 3157 3156 3156 3155 3155 3154 3154 3153 3153 3152 3152 3152 3152 3152 3152 3151 3151 3151 3152 3151 3150 3150 3149 3148 3147 3146 3145 3145 3144 3144 3144 3144 3143 3143 3143 3141 3138 3136 3135 3134 3132 3131 3128 3126 3125 3123
3115 3116 3118 3119 3121 3123 3124 3126 3127 3129 3131 3133 3134 3136 3137 3138 3140 3141 3143 3146 3148 3149 3150 3152 3153 3155 3156 3157 3158 3159 3160 3160 3160 3160 3159 3158 3157 3155 3154 3153 3153 3152 3151 3151 3151 3150 3149 3149 3148 3148 3148 3149 3148 3148 3147 3147 3147 3147 3147 3146 3146 3146 3145 3144 3143 3142 3141 3141 3140 3141 3141 3140 3139 3138 3137 3134 3132 3131 3130 3128 3127 3124 3122 3120 3118
3111 3113 3114 3115 3117 3119 3120 3122 3123 3125 3127 3129 3130 3132 3133 3135 3137 3138 3140 3142 3144 3146 3148 3149 3151 3152 3153 3154 3155 3155 3155 3156 3156 3156 3155 3154 3153 3152 3150 3149 3148 3147 3147 3147 3146 3145 3145 3145 3145 3145 3145 3145 3145 3145 3144 3143 3143 3143 3143 3143 3143 3143 3142 3141 3140 3139 3138 3138 3137 3137 3138 3136 3134 3134 3132 3130 3128 3126 3125 3123 3122 3120 3117 3116 3114
3107 3109 3110 3111 3113 3114 3116 3117 3119 3121 3123 3125 3127 3128 3130 3132 3134 3135 3137 3138 3141 3143 3145 3147 3148 3149 3150 3151 3151 3151 3151 3152 3153 3152 3151 3150 3149 3148 3146 3144 3143 3142 3142 3142 3142 3142 3142 3142 3142 3142 3142 3142 3141 3140 3140 3139 3139 3139 3140 3140 3140 3140 3139 3138 3137 3136 3135 3135 3134 3134 3134 3132 3131 3129 3128 3127 3125 3122 3120 3118 3117 3116 3113 3111 3110
3104 3105 3106 3108 3109 3110 3112 3114 3115 3118 3120 3122 3123 3125 3127 3129 3131 3132 3133 3135 3138 3140 3142 3143 3144 3146 3146 3146 3146 3147 3148 3149 3149 3148 3147 3146 3145 3144 3142 3140 3139 3138 3138 3138 3138 3139 3139 3138 3138 3138 3137 3137 3136 3136 3136 3136 3136 3137 3137 3137 3137 3136 3136 3135 3134 3133 3132 3132 3131 3130 3129 3128 3127 3126 3124 3123 3121 3119 3116 3114 3112 3110 3108 3106 3106
3100 3101 3102 3104 3105 3106 3108 3110 3112 3114 3116 3118 3120 3122 3124 3126 3128 3129 3131 3133 3135 3137 3138 3140 3141 3141 3142 3142 3142 3143 3144 3145 3145 3144 3143 3142 3141 3139 3137 3136 3134 3134 3134 3134 3134 3135 3135 3135 3134 3134 3134 3134 3133 3133 3133 3133 3133 3134 3134 3134 3133 3133 3133 3132 3131 3130 3129 3128 3127 3126 3125 3124 3123 3122 3120 3118 3116 3114 3111 3109 3108 3106 3103 3101 3100
3097 3098 3099 3100 3102 3103 3105 3107 3109 3111 3113 3115 3117 3119 3122 3124 3125 3127 3129 3131 3132 3134 3135 3136 3136 3137 3137 3138 3139 3140 3140 3141 3141 3140 3139 3138 3136 3134 3133 3131 3130 3130 3129 3129 3130 3132 3132 3131 3132 3132 3132 3131 3130 3130 3130 3130 3130 3131 3130 3130 3130 3130 3130 3129 3128 3127 3126 3125 3124 3123 3122 3121 3119 3118 3116 3114 3112 3109 3107 3105 3104 3102 3099 3097 3095
3094 3095 3097 3098 3099 3100 3102 3104 3106 3108 3110 3112 3114 3117 3119 3121 3123 3125 3127 3128 3129 3130 3130 3131 3132 3132 3133 3134 3135 3136 3137 3137 3137 3136 3135 3134 3132 3130 3128 3127 3126 3126 3125 3125 3126 3127 3128 3128 3129 3129 3128 3128 3127 3127 3127 3127 3128 3128 3127 3127 3127 3128 3127 3126 3125 3125 3124 3122 3121 3120 3119 3117 3116 3113 3111 3109 3107 3105 3103 3101 3099 3097 3095 3093 3091
3091 3093 3095 3096 3096 3097 3099 3102 3104 3106 3108 3109 3112 3114 3116 3118 3120 3122 3123 3124 3125 3125 3126 3127 3128 3128 3130 3131 3131 3132 3133 3133 3132 3132 3131 3129 3128 3126 3124 3123 3123 3122 3122 3122 3123 3123 3124 3125 3126 3126 3125 3125 3124 3124 3124 3125 3125 3125 3125 3125 3125 3125 3124 3123 3123 3122 3121 3120 3118 3117 3116 3114 3112 3109 3107 3105 3103 3100 3098 3096 3094 3092 3090 3088 3087
3089 3090 3092 3093 3093 3094 3096 3098 3101 3103 3105 3106 3109 3111 3113 3115 3117 3119 3119 3120 3121 3122 3123 3124 3125 3125 3126 3127 3128 3129 3129 3129 3128 3127 3126 3125 3124 3122 3121 3120 3120 3120 3119 3119 3119 3120 3120 3121 3121 3121 3121 3121 3121 3122 3122 3123 3122 3122 3122 3122 3122 3122 3121 3121 3120 3119 3118 3116 3115 3114 3112 3110 3108 3105 3103 3101 3098 3096 3094 3092 3090 3088 3087 3085 3083
3085 3086 3088 3089 3090 3092 3092 3094 3096 3098 3100 3102 3104 3107 3109 3111 3113 3115 3116 3117 3118 3119 3120 3121 3122 3122 3123 3124 3125 3125 3125 3125 3124 3123 3123 3122 3120 3118 3117 3117 3117 3116 3116 3116 3116 3116 3116 3117 3117 3117 3118 3118 3119 3120 3120 3120 3120 3120 3120 3119 3119 3118 3118 3117 3116 3115 3114 3112 3111 3110 3108 3106 3103 3101 3099 3096 3094 3092 3090 3089 3087 3085 3084 3082 3080
3081 3082 3083 3084 3086 3088 3088 3089 3091 3093 3095 3097 3099 3102 3105 3107 3108 3110 3111 3113 3114 3115 3116 3118 3118 3119 3120 3121 3121 3122 3121 3121 3121 3120 3119 3117 3116 3114 3114 3114 3114 3113 3113 3113 3113 3113 3113 3114 3114 3114 3115 3116 3117 3117 3118 3117 3117 3117 3117 3116 3116 3115 3114 3114 3112 3111 3110 3109 3107 3105 3103 3101 3099 3096 3094 3092 3090 3089 3087 3085 3084 3082 3081 3080 3078
3075 3076 3078 3080 3081 3083 3084 3085 3085 3087 3089 3091 3093 3096 3099 3101 3103 3106 3107 3108 3109 3111 3112 3114 3115 3116 3117 3118 3118 3118 3117 3117 3117 3116 3114 3113 3112 3111 3110 3110 3110 3110 3110 3110 3111 3111 3111 3111 3111 3112 3113 3114 3115 3115 3115 3115 3115 3115 3114 3113 3113 3112 3111 3110 3109 3108 3106 3105 3103 3101 3098 3097 3095 3093 3091 3089 3087 3086 3084 3083 3081 3080 3078 3077 3076
3070 3071 3073 3075 3076 3077 3078 3080 3080 3082 3085 3086 3088 3091 3094 3097 3099 3100 3100 3101 3104 3107 3109 3110 3112 3114 3114 3115 3115 3114 3113 3113 3112 3111 3110 3108 3107 3107 3107 3107 3107 3107 3108 3108 3108 3108 3108 3109 3109 3111 3112 3112 3113 3113 3113 3113 3112 3112 3111 3110 3110 3109 3108 3107 3106 3105 3103 3101 3099 3097 3095 3093 3091 3089 3088 3086 3085 3083 3082 3081 3079 3077 3075 3074 3073
3064 3067 3068 3069 3069 3070 3071 3073 3074 3076 3078 3080 3082 3086 3089 3092 3094 3095 3096 3098 3101 3103 3106 3108 3110 3111 3111 3111 3111 3110 3109 3108 3107 3106 3105 3104 3104 3104 3104 3105 3105 3105 3105 3105 3105 3106 3106 3107 3108 3109 3109 3110 3110 3110 3110 3110 3109 3109 3108 3107 3107 3106 3106 3105 3103 3102 3100 3098 3096 3094 3092 3090 3089 3087 3085 3084 3083 3081 3079 3078 3076 3075 3073 3071 3070
3057 3059 3060 3060 3060 3060 3061 3063 3066 3067 3069 3072 3076 3081 3085 3090 3093 3095 3097 3099 3100 3102 3104 3106 3107 3108 3108 3108 3107 3106 3105 3104 3102 3101 3101 3100 3100 3101 3102 3102 3102 3103 3103 3103 3103 3104 3105 3106 3107 3107 3107 3107 3107 3107 3107 3106 3106 3105 3105 3104 3104 3104 3103 3102 3101 3099 3097 3095 3093 3091 3090 3088 3087 3085 3083 3082 3080 3078 3076 3074 3073 3072 3070 3068 3067
3049 3051 3051 3050 3049 3049 3051 3055 3057 3060 3063 3068 3074 3080 3085 3090 3094 3095 3095 3097 3100 3101 3103 3104 3105 3105 3105 3104 3102 3101 3100 3099 3098 3098 3098 3097 3098 3098 3099 3100 3100 3100 3101 3101 3102 3103 3104 3104 3104 3104 3104 3104 3104 3104 3103 3103 3103 3102 3102 3101 3101 3100 3100 3099 3097 3096 3094 3092 3090 3089 3087 3086 3084 3083 3081 3079 3077 3075 3073 3071 3069 3068 3066 3065 3063
3042 3044 3044 3044 3043 3043 3044 3048 3051 3055 3061 3068 3074 3079 3083 3086 3089 3091 3092 3094 3097 3099 3100 3101 3101 3101 3100 3099 3098 3097 3095 3095 3095 3095 3095 3095 3095 3096 3097 3097 3098 3098 3099 3100 3101 3102 3102 3102 3101 3101 3101 3101 3101 3100 3100 3100 3100 3099 3099 3098 3098 3097 3096 3095 3094 3093 3091 3090 3088 3086 3085 3083 3082 3080 3078 3076 3074 3072 3070 3068 3066 3065 3063 3061 3060
3034 3034 3034 3038 3040 3040 3040 3042 3046 3052 3058 3066 3071 3075 3078 3081 3085 3088 3089 3091 3094 3095 3096 3097 3097 3096 3095 3094 3093 3092 3091 3091 3092 3092 3092 3092 3093 3094 3095 3095 3096 3097 3098 3099 3099 3100 3099 3099 3098 3098 3098 3098 3097 3097 3096 3096 3096 3096 3096 3095 3094 3093 3092 3091 3090 3089 3088 3086 3085 3084 3082 3080 3079 3077 3075 3073 3071 3069 3067 3065 3063 3062 3060 3058 3057
3023 3023 3023 3026 3030 3034 3036 3037 3041 3047 3053 3060 3065 3069 3073 3077 3080 3083 3086 3088 3090 3091 3092 3092 3091 3091 3090 3089 3088 3088 3088 3088 3088 3088 3089 3090 3091 3092 3093 3094 3095 3096 3096 3097 3097 3097 3097 3096 3096 3095 3095 3095 3094 3094 3093 3093 3093 3093 3092 3091 3090 3090 3089 3088 3087 3086 3085 3084 3083 3082 3080 3078 3076 3074 3072 3071 3069 3067 3065 3063 3061 3059 3057 3056 3054
3014 3015 3015 3014 3017 3025 3031 3033 3036 3042 3049 3055 3060 3064 3069 3073 3077 3080 3083 3085 3086 3087 3087 3087 3086 3086 3085 3085 3084 3084 3084 3084 3084 3085 3086 3088 3089 3090 3091 3092 3093 3094 3094 3095 3095 3095 3094 3094 3093 3092 3092 3092 3091 3091 3090 3090 3090 3089 3088 3087 3087 3086 3085 3085 3084 3083 3082 3081 3080 3078 3076 3075 3073 3071 3070 3068 3067 3065 3063 3061 3059 3057 3055 3054 3052
3007 3009 3010 3010 3013 3022 3028 3030 3033 3040 3047 3052 3057 3062 3067 3072 3075 3077 3079 3080 3081 3082 3082 3082 3082 3081 3081 3081 3080 3080 3080 3081 3081 3082 3084 3085 3087 3088 3089 3090 3091 3092 3092 3092 3092 3092 3091 3091 3090 3090 3089 3089 3088 3088 3087 3087 3087 3086 3085 3084 3084 3083 3082 3081 3080 3080 3078 3077 3075 3074 3072 3071 3070 3069 3067 3066 3064 3062 3061 3059 3057 3055 3053 3052 3050
3006 3007 3009 3011 3015 3021 3026 3029 3033 3040 3046 3052 3056 3061 3065 3069 3071 3073 3075 3076 3077 3077 3077 3077 3077 3077 3077 3077 3077 3077 3077 3078 3079 3080 3082 3083 3084 3085 3086 3088 3088 3089 3089 3089 3089 3089 3089 3088 3088 3087 3086 3086 3085 3085 3084 3084 3083 3082 3082 3081 3080 3079 3078 3077 3076 3075 3074 3073 3072 3071 3070 3069 3068 3066 3065 3063 3062 3060 3058 3057 3055 3053 3052 3050 3048
3010 3012 3012 3013 3017 3022 3027 3031 3036 3042 3047 3051 3055 3059 3062 3065 3067 3069 3070 3071 3072 3073 3073 3073 3074 3074 3074 3075 3075 3075 3076 3076 3077 3078 3079 3080 3082 3083 3084 3085 3086 3086 3087 3087 3087 3086 3086 3085 3084 3083 3083 3082 3082 3081 3081 3080 3079 3078 3077 3077 3076 3076 3075 3074 3073 3072 3071 3070 3070 3069 3068 3067 3065 3064 3062 3061 3059 3058 3056 3054 3053 3051 3050 3048 3046
3014 3016 3017 3019 3022 3026 3030 3035 3039 3043 3046 3049 3052 3055 3058 3061 3063 3065 3066 3067 3068 3069 3069 3070 3070 3071 3072 3072 3073 3073 3074 3074 3075 3076 3077 3078 3079 3080 3081 3082 3083 3084 3084 3084 3084 3083 3083 3082 3081 3080 3080 3079 3078 3078 3077 3077 3076 3075 3074 3074 3074 3073 3072 3071 3070 3070 3069 3069 3068 3067 3066 3065 3063 3062 3060 3058 3057 3055 3054 3052 3051 3049 3048 3046 3044
3015 3017 3019 3021 3024 3028 3032 3036 3038 3041 3044 3046 3049 3052 3055 3057 3060 3061 3062 3063 3064 3065 3066 3067 3068 3069 3069 3070 3071 3071 3072 3073 3073 3074 3075 3076 3077 3078 3079 3080 3081 3081 3081 3081 3081 3080 3079 3078 3078 3077 3077 3076 3075 3075 3074 3074 3074 3073 3073 3072 3072 3071 3070 3069 3068 3068 3067 3067 3066 3065 3064 3063 3061 3060 3058 3056 3055 3053 3052 3050 3049 3047 3046 3044 3042
3018 3019 3021 3023 3026 3029 3032 3035 3037 3039 3042 3044 3047 3050 3052 3054 3056 3057 3059 3060 3061 3062 3063 3064 3065 3066 3067 3068 3069 3070 3071 3071 3071 3072 3073 3074 3075 3076 3076 3077 3077 3078 3078 3078 3077 3077 3076 3075 3075 3074 3073 3073 3072 3072 3072 3072 3071 3071 3070 3070 3069 3068 3067 3067 3066 3066 3065 3065 3064 3063 3062 3061 3059 3057 3056 3054 3053 3051 3050 3049 3047 3045 3044 3042 3041
3021 3023 3025 3027 3029 3031 3033 3035 3037 3039 3041 3043 3045 3047 3049 3051 3053 3054 3055 3057 3058 3059 3059 3060 3062 3063 3064 3065 3066 3067 3069 3069 3069 3070 3071 3071 3072 3073 3073 3074 3074 3075 3075 3074 3074 3073 3073 3072 3071 3071 3070 3070 3070 3069 3069 3069 3069 3068 3068 3067 3067 3066 3065 3065 3064 3064 3063 3063 3062 3061 3060 3058 3057 3055 3054 3052 3051 3050 3048 3047 3045 3044 3042 3041 3039
3023 3025 3027 3029 3030 3032 3034 3035 3037 3038 3040 3042 3044 3045 3047 3049 3050 3051 3052 3054 3055 3055 3056 3057 3059 3060 3061 3062 3063 3065 3066 3066 3067 3067 3068 3069 3069 3070 3070 3070 3071 3071 3071 3070 3070 3069 3069 3068 3067 3067 3067 3067 3067 3067 3066 3066 3066 3066 3066 3065 3064 3064 3063 3063 3062 3061 3061 3060 3060 3059 3057 3056 3054 3053 3051 3050 3049 3048 3046 3045 3044 3042 3041 3039 3038
3024 3026 3027 3028 3030 3032 3033 3034 3036 3037 3039 3041 3042 3044 3046 3047 3048 3049 3050 3051 3052 3053 3053 3054 3056 3058 3059 3060 3061 3062 3063 3064 3064 3065 3065 3066 3066 3066 3067 3067 3067 3067 3067 3067 3066 3066 3066 3065 3065 3065 3065 3065 3064 3064 3064 3064 3064 3064 3063 3063 3062 3061 3060 3060 3059 3059 3058 3058 3057 3056 3055 3053 3052 3051 3049 3048 3047 3046 3044 3043 3042 3041 3039 3038 3036
3024 3025 3026 3027 3028 3030 3031 3032 3034 3035 3037 3038 3040 3041 3043 3045 3046 3048 3049 3050 3051 3051 3051 3052 3054 3056 3057 3058 3059 3060 3060 3061 3062 3062 3062 3063 3063 3063 3063 3063 3063 3063 3063 3063 3063 3063 3063 3063 3063 3063 3063 3063 3062 3062 3062 3062 3062 3061 3061 3060 3059 3059 3058 3057 3057 3056 3056 3055 3054 3053 3052 3051 3050 3048 3047 3046 3045 3044 3043 3041 3040 3039 3038 3036 3035
3023 3024 3025 3026 3027 3028 3029 3030 3032 3033 3035 3036 3037 3038 3040 3042 3044 3046 3048 3049 3049 3050 3050 3051 3053 3054 3055 3055 3056 3057 3058 3059 3059 3059 3059 3059 3060 3060 3060 3060 3060 3060 3060 3060 3060 3060 3060 3060 3060 3059 3059 3060 3060 3060 3060 3060 3059 3059 3058 3057 3057 3056 3055 3054 3054 3053 3053 3052 3051 3050 3049 3048 3047 3046 3045 3044 3043 3042 3041 3040 3038 3037 3036 3035 3033
3021 3023 3023 3024 3025 3026 3027 3027 3028 3030 3031 3033 3034 3035 3037 3039 3041 3043 3045 3047 3048 3048 3049 3050 3051 3052 3053 3053 3054 3055 3056 3056 3056 3056 3056 3056 3057 3057 3057 3057 3057 3057 3057 3057 3057 3057 3057 3057 3056 3056 3056 3056 3057 3057 3057 3056 3056 3055 3055 3054 3053 3053 3052 3051 3050 3050 3049 3048 3048 3048 3047 3046 3045 3044 3042 3042 3041 3040 3039 3038 3037 3036 3034 3033 3032
3020 3021 3021 3022 3023 3024 3025 3026 3027 3027 3028 3029 3030 3032 3034 3037 3039 3041 3043 3045 3046 3047 3047 3048 3049 3050 3050 3051 3052 3052 3052 3052 3052 3052 3052 3053 3054 3054 3054 3054 3054 3054 3054 3054 3054 3054 3054 3054 3053 3053 3053 3053 3053 3054 3053 3053 3052 3052 3051 3051 3050 3049 3048 3048 3047 3047 3046 3046 3045 3045 3044 3043 3042 3041 3040 3040 3039 3038 3037 3036 3035 3034 3033 3031 3030
3018 3019 3019 3021 3022 3022 3023 3024 3024 3025 3025 3025 3027 3029 3031 3034 3036 3038 3040 3041 3043 3044 3045 3046 3046 3047 3048 3048 3048 3048 3049 3048 3048 3048 3049 3050 3050 3051 3050 3050 3050 3050 3050 3051 3051 3051 3051 3051 3051 3051 3051 3051 3051 3051 3050 3050 3049 3049 3048 3047 3046 3046 3045 3045 3045 3044 3044 3043 3042 3042 3042 3041 3040 3039 3038 3037 3037 3036 3035 3034 3033 3032 3031 3030 3029
3015 3016 3016 3017 3018 3019 3020 3021 3021 3021 3023 3025 3026 3027 3029 3031 3032 3034 3036 3038 3039 3041 3042 3042 3043 3044 3044 3044 3044 3044 3044 3044 3044 3044 3045 3046 3047 3047 3046 3046 3046 3046 3047 3047 3048 3047 3047 3048 3049 3049 3049 3049 3049 3049 3048 3047 3047 3046 3045 3044 3044 3043 3043 3042 3042 3042 3041 3040 3040 3040 3039 3038 3038 3037 3036 3035 3035 3034 3033 3032 3031 3031 3029 3028 3027
3012 3013 3013 3014 3015 3017 3019 3019 3019 3020 3022 3023 3023 3025 3027 3028 3028 3029 3031 3033 3035 3037 3038 3039 3040 3040 3040 3040 3040 3040 3040 3039 3039 3040 3041 3042 3043 3043 3042 3042 3042 3043 3043 3044 3044 3044 3044 3045 3046 3046 3047 3047 3047 3046 3046 3045 3043 3042 3041 3041 3041 3041 3040 3039 3039 3039 3038 3038 3037 3037 3037 3036 3035 3034 3034 3033 3033 3032 3031 3030 3030 3029 3028 3027 3025
3011 3012 3013 3014 3015 3016 3017 3017 3017 3017 3019 3020 3020 3021 3024 3026 3026 3027 3028 3030 3032 3033 3034 3035 3035 3036 3036 3036 3036 3036 3036 3035 3036 3036 3037 3038 3038 3038 3038 3038 3039 3039 3040 3040 3041 3041 3041 3042 3043 3043 3044 3044 3043 3043 3042 3041 3040 3039 3039 3038 3038 3037 3037 3036 3036 3036 3035 3035 3035 3035 3034 3034 3033 3032 3031 3031 3030 3030 3029 3028 3028 3027 3026 3025 3024
3010 3011 3012 3014 3014 3015 3015 3015 3015 3015 3017 3018 3018 3019 3021 3023 3024 3026 3027 3028 3028 3029 3029 3030 3031 3031 3032 3032 3032 3032 3032 3032 3033 3033 3034 3035 3035 3035 3035 3035 3036 3036 3036 3037 3037 3038 3039 3040 3040 3041 3041 3040 3040 3039 3038 3037 3036 3036 3036 3035 3035 3034 3034 3034 3033 3033 3033 3033 3032 3032 3032 3031 3030 3030 3029 3028 3028 3027 3027 3026 3026 3025 3024 3023 3022
3008 3009 3010 3011 3012 3013 3013 3014 3014 3014 3014 3015 3017 3018 3019 3020 3022 3023 3023 3024 3024 3025 3025 3026 3027 3027 3028 3028 3028 3028 3028 3029 3029 3030 3030 3031 3032 3032 3032 3033 3033 3034 3034 3034 3035 3035 3036 3037 3037 3038 3037 3037 3036 3035 3035 3034 3033 3033 3033 3032 3032 3032 3031 3031 3031 3030 3030 3030 3029 3029 3029 3028 3028 3027 3026 3026 3025 3025 3025 3024 3024 3023 3022 3022 3021